Flag for Germany Weather past 2 weeks in Heidelberg, Baden-Württemberg, Germany

Now
48 °F

Partly cloudy.


Feels Like: 42 °F
Forecast: 43 / 54 °F
Wind: 15 mph from West

Location: Baden Wurttemberg - Neuostheim

Current Time: Mar 30, 2015 at 8:43:30 AM

Latest Report: Mar 30, 2015 at 7:50 AM


Visibility: N/A

Pressure: 29.56 "Hg

Humidity: 66%

Dew point: 37 °F

Location of HeidelbergLocation

Historic Weather in Heidelberg — Graph

°F

Heidelberg temperature yesterday

Maximum temperature yesterday: 54 °F (at 10:50 AM)
Minimum temperature yesterday: 52 °F (at 7:20 AM)
Average temperature yesterday: 53 °F

Past Weeks' High & Low Weather Summary

 TemperatureHumidityPressure
High64 °F (Mar 17, 3:50 PM)100% (Mar 21, 9:20 AM)30.30 "Hg (Mar 21, 9:20 AM)
Low30 °F (Mar 24, 5:20 AM)34% (Mar 20, 3:50 PM)29.50 "Hg (Mar 30, 5:50 AM)
Average49 °F64%30.04 "Hg
* Reported Mar 15 7:20 AM — Mar 30 7:20 AM, Heidelberg, Weather by CustomWeather, © 2015

Note: Actual official high and low records may vary slightly from our data, if they occured in-between our weather recording intervals... More about our weather records

Advertising

Heidelberg weather history for previous 24 hours

 ConditionsComfort  
Time TempWeatherWind HumidityBarometerVisibility
7:20 AM
Mon, Mar 30
48 °FPassing clouds.15 mph66%29.56 "HgN/A
6:50 AM46 °FOvercast.12 mph82%29.56 "HgN/A
6:20 AM48 °FMostly cloudy.12 mph76%29.53 "HgN/A
5:50 AM48 °FMostly cloudy.12 mph76%29.50 "HgN/A
5:20 AM50 °FPassing clouds.13 mph71%29.53 "HgN/A
7:50 PM
Sun, Mar 29
52 °FLight rain. Partly sunny.15 mph94%29.56 "HgN/A
7:20 PM52 °FLight rain. Broken clouds.15 mph94%29.56 "HgN/A
6:50 PM54 °FLight rain. Partly sunny.20 mph82%29.56 "HgN/A
6:20 PM54 °FLight rain. Partly sunny.16 mph82%29.56 "HgN/A
5:50 PM52 °FLight rain. Partly sunny.17 mph88%29.59 "HgN/A
5:20 PM52 °FLight rain. Partly sunny.16 mph94%29.59 "HgN/A
4:50 PM52 °FLight rain. Partly sunny.17 mph88%29.62 "HgN/A
4:20 PM52 °FLight rain. Partly sunny.14 mph88%29.65 "HgN/A
3:50 PM54 °FLight rain. Partly sunny.15 mph77%29.65 "HgN/A
3:20 PM54 °FLight rain. Partly sunny.14 mph72%29.68 "HgN/A
2:50 PM54 °FPartly sunny.14 mph72%29.71 "HgN/A
2:20 PM54 °FPartly sunny.15 mph72%29.71 "HgN/A
1:50 PM54 °FLight rain. Partly sunny.15 mph72%29.74 "HgN/A
1:20 PM54 °FOvercast.14 mph72%29.74 "HgN/A
12:50 PM54 °FBroken clouds.15 mph72%29.77 "HgN/A
12:20 PM54 °FPartly sunny.15 mph67%29.77 "HgN/A
11:50 AM54 °FMostly cloudy.14 mph72%29.77 "HgN/A
10:50 AM54 °FPartly sunny.10 mph77%29.80 "HgN/A
10:20 AM52 °FLight rain. Partly sunny.12 mph82%29.80 "HgN/A
9:50 AM52 °FLight rain. Partly sunny.8 mph88%29.80 "HgN/A
9:20 AM52 °FLight rain. Partly sunny.10 mph88%29.83 "HgN/A
8:50 AM52 °FLight rain. Partly sunny.12 mph88%29.83 "HgN/A
8:20 AM52 °FOvercast.10 mph88%29.83 "HgN/A
Weather by CustomWeather, © 2015

See weather overviewHow to use our weather pages